CZ-2C R/B, 40287

Orbit data source: Space-Track

CZ-2C R/B, 40287 is space debris in SSO originally from a launch on Mon, 27 Oct 2014 UTC launched from the Jiuquan Satellite Launch Center, China (JSC). Debris objects in space refer to the collection of defunct objects orbiting the Earth. Examples of debris include non-operational satellites, rocket bodies, and fragments generated from explosions, collisions, or faulty payload assembly.

Loading next visibility...
Identifier
40287, 2014-066B
Orbit
SSO
Country
Flag of CNCN / PRC
Related business
Manufacturer
CALT
Mission
Spacecraft
Bus & Motor
CZ-2 STAGE 2, Unknown motor
Mass
~3,800 kg wet, ~3,800 kg dry
Launch date (UTC)
2014-10-27 (12 years ago)
Launch vehicle
Unknown
Launch site
Jiuquan Satellite Launch Center, China (JSC)
Object type
Payload
Rocket body
Debris
Shape & HBR
Cyl, 4.2 m
Radar Cross Section
26.048 m², Large (>1 m²)

Expand to show TLE details & history
Last TLE update: 6 hours ago

TLE from 6 hours ago
0 CZ-2C R/B
1 40287U 14066B   26121.52679877  .00000572  00000-0  10851-3 0  9993
2 40287  97.7259 144.4359 0009789  83.3536 276.8784 14.67627344615506
Epoch: 2026-05-01T12:38Z
TLE epoch observation values (Epoch: 2026-05-01T12:38:35.413Z)
Latitude
0.00001°
Longitude
95.33056°
Altitude
670.843 km
Speed
7.522 km/s
True Right ascension
09h 37m 44s
True Declination
0° 00' 00"
Sunlit
Object was in daylight at epoch
Visualization orbit readout
Latitude
Unknown
Longitude
Unknown
Altitude
Unknown
Speed
Unknown
Apparent Right ascension
Unknown
Apparent Declination
Unknown
Sunlit
N/A
Visualization observer readout
Local Sidereal Time
01:47:42
Azimuth
Unknown
Elevation
Unknown
Doppler factor
Unknown
Orbital elements
Apogee altitude
672.598 km
Perigee altitude
658.807 km
Semi-major axis
7,043.839 km
Eccentricity
0.00098
Inclination
97.7259°
RAAN
144.4359°
Arg. of periapsis
83.3536°
True anomaly
276.76702°
Mean anomaly
276.8784°
Eccentric anomaly
276.82271°
Mean motion
3.67138 °/min
Orbital period
98.06 mins
BSTAR
0.00010851
Loading maneuver chart data...
Computing Atmospheric mass density...
Loading historical data...
Loading historical data...
Loading historical data...
Loading historical data...
Loading historical data...
Loading historical data...
Loading historical data...
Other satellites on launch #66 in the year 2014 (2014-10-27 UTC)

Documentation

Showing up to 5 results
|